Location: Bemmer
(51.5498°N, 5.6249°E)
Time: 17:50:31
(UTC+00:00)

Cosmos 1943 Rocket - Pass Details

Date: 03 March 2021
Orbit: 811 x 844 km, 71.0° (Epoch: 13 April)

Event Time Altitude Azimuth Distance (km) Brightness Sun altitude
Rises 18:57:38 0° 326° (NNW) 3,415 6.0 -15.7°
Reaches altitude 10° 19:01:19 10° 350° (N) 2,478 4.9 -16.2°
Maximum altitude 19:04:26 15° 24° (NNE) 2,156 4.2 -16.7°
Enters shadow 19:06:45 12° 50° (NE) 2,337 4.1 -17.1°
